Wind_Speed
41 41 42 43 44 46 48 49 51 52 53 55 56 57 58 60 63 65 65 67 67 68 72 74 77 81 82 83 85 84 83 81 78 76 74 75 74 73 71 69 67 65 62 59 55 51 48 46 46 48 51 54 57 60 63 66 69 71 73 74 76 77 79 80 80 79 78 78 78 78 79 79 78 78 77 76 74 71 68 67 66 65 62 57 51 48
44 44 44 45 46 48 49 50 52 52 54 55 57 58 60 61 63 66 68 69 69 69 72 75 78 84 85 84 85 84 81 78 76 75 75 75 74 71 69 66 64 60 55 51 47 45 45 46 48 51 54 57 60 63 66 68 71 73 74 76 77 78 79 80 80 80 78 78 78 78 78 78 78 78 77 76 74 71 68 65 63 63 62 57 52 47
46 46 46 47 48 49 50 51 52 53 54 55 57 59 61 62 63 66 69 71 71 71 73 75 79 84 85 83 82 81 78 76 76 76 74 73 71 68 64 59 55 50 46 44 43 43 46 48 51 55 58 61 64 66 69 71 73 74 76 78 79 79 80 80 81 80 79 78 78 78 77 78 77 77 77 76 74 71 67 65 63 61 61 58 53 47
47 47 48 49 49 49 50 51 52 54 54 55 57 59 61 63 63 65 68 71 74 75 75 76 78 83 83 80 79 78 77 76 76 74 72 69 65 60 54 49 45 43 43 43 44 46 49 52 55 58 61 65 67 70 72 73 75 76 78 79 80 80 80 81 81 81 80 79 78 78 77 77 77 77 77 76 74 72 68 64 62 60 59 59 55 49
48 48 49 49 49 50 50 51 52 54 55 56 57 59 61 63 65 66 68 72 76 78 79 78 77 79 80 77 77 77 77 76 74 71 67 61 54 48 44 43 42 43 44 46 48 50 53 56 59 62 65 68 70 72 74 76 78 79 80 80 80 80 81 81 81 81 81 80 79 78 78 77 77 76 76 76 74 72 69 65 62 59 58 58 56 51
49 49 49 49 49 50 50 51 52 53 55 57 58 60 62 64 67 69 72 75 77 79 81 79 75 74 77 76 76 77 76 73 69 63 55 49 44 41 41 43 44 45 47 50 52 54 57 60 62 65 67 69 72 74 76 78 79 80 80 80 80 81 81 81 81 82 81 81 80 79 79 78 77 76 75 75 73 71 68 64 61 59 57 56 56 53
49 49 49 49 49 50 50 51 52 53 55 57 59 61 63 66 69 72 75 76 78 79 79 78 75 73 74 75 76 75 71 65 58 49 44 41 41 41 42 45 47 49 52 54 56 58 61 63 65 67 69 71 73 75 77 78 79 80 80 81 82 82 83 82 81 82 82 82 82 81 80 79 78 77 76 74 73 71 67 63 61 58 56 55 55 54
50 49 49 49 50 50 51 52 53 54 56 58 60 63 66 69 71 73 76 77 78 78 77 77 75 73 74 73 71 67 59 51 45 41 40 41 42 44 46 48 51 53 55 58 60 62 64 66 67 69 71 72 74 75 76 77 78 80 82 83 85 85 85 84 83 82 83 83 83 82 81 80 79 77 76 75 74 72 68 64 60 57 55 53 53 53
51 50 50 50 51 51 52 53 55 56 58 61 63 65 68 70 72 74 75 76 76 76 75 76 75 74 72 66 59 52 46 42 41 40 41 43 46 49 51 53 54 56 58 60 62 64 66 68 69 71 73 74 75 75 76 78 80 82 84 86 87 88 88 87 85 84 84 84 84 83 82 81 80 78 76 75 74 72 69 65 61 58 54 52 52 52
52 52 51 52 52 53 54 55 57 59 61 63 66 67 69 71 72 73 73 73 73 74 74 74 74 69 61 53 47 43 40 40 42 43 45 48 51 53 55 57 58 59 61 62 64 66 68 70 71 73 74 76 76 77 78 80 82 84 86 89 90 90 90 90 89 87 85 84 84 84 83 82 81 79 77 75 74 72 69 65 62 59 55 52 50 50
53 53 53 54 54 56 57 58 60 62 63 65 67 69 70 71 71 71 71 70 70 72 72 71 68 58 47 44 44 43 42 43 44 46 50 53 56 57 58 59 61 62 63 64 65 67 69 71 73 74 76 78 79 80 82 83 85 87 89 91 93 92 92 93 93 90 87 84 84 84 83 82 81 80 77 75 74 72 70 66 62 59 56 52 50 48
55 55 55 56 57 58 60 61 63 64 66 67 68 69 69 69 68 68 67 68 68 68 64 62 57 47 42 44 46 45 46 47 48 50 53 55 58 59 60 61 63 64 66 66 67 68 70 72 75 77 79 81 83 84 86 87 88 90 92 93 94 94 95 95 95 92 88 85 84 84 84 82 81 80 78 76 74 72 70 67 63 60 57 53 50 48
56 56 57 58 59 61 62 64 65 67 68 69 69 69 68 67 66 64 64 64 61 56 52 51 47 43 44 47 48 49 51 51 53 55 55 57 58 59 61 62 63 65 66 68 69 70 72 75 77 80 82 83 85 87 89 90 91 93 94 95 96 97 97 97 95 92 89 87 85 84 84 82 80 79 78 76 74 72 70 67 63 61 57 54 50 48
57 58 59 60 61 63 64 66 67 68 68 69 69 68 67 66 63 62 62 56 48 44 45 46 43 42 47 50 51 54 55 55 57 58 58 58 58 59 60 61 62 65 68 70 73 74 76 78 80 82 84 85 87 89 91 93 94 96 97 97 98 99 99 98 96 93 90 88 86 83 83 82 80 79 77 76 74 72 70 68 64 61 58 54 50 47
58 59 60 62 63 64 66 67 67 67 68 68 67 66 65 64 63 62 56 45 38 39 44 47 46 45 49 53 55 56 57 57 58 58 59 59 59 59 59 61 63 67 70 73 76 78 79 81 83 84 85 87 89 91 93 95 96 98 99 100 101 102 101 99 97 94 91 89 87 84 82 81 80 78 77 75 73 72 70 68 65 61 58 55 51 47
58 60 62 63 64 65 67 67 68 67 66 66 65 63 62 62 62 56 46 39 37 41 46 51 51 50 51 54 56 57 57 57 58 58 59 59 60 61 62 64 67 70 73 76 78 80 82 83 84 86 87 89 91 93 95 97 98 100 101 102 103 103 102 101 98 96 92 89 87 85 82 80 79 77 76 74 73 71 70 68 65 62 59 56 52 47
58 60 63 65 65 66 66 66 67 66 66 65 63 61 60 58 54 47 39 37 39 42 48 54 54 52 53 54 55 56 56 57 58 59 61 63 65 66 67 69 72 74 76 78 80 82 83 85 86 88 90 92 93 95 97 99 100 102 104 105 105 105 104 103 101 97 93 90 87 85 83 80 78 76 75 74 72 71 69 68 65 63 59 56 53 49
59 60 64 66 65 65 66 66 66 65 65 63 61 60 56 49 44 40 38 39 40 43 48 55 57 54 53 54 54 55 56 57 59 62 66 68 70 70 72 74 76 78 80 81 83 84 86 87 89 90 92 94 96 98 99 101 103 104 105 106 107 107 106 105 103 99 95 91 88 86 84 80 77 75 74 73 71 70 69 67 65 63 60 57 54 51
59 60 63 66 65 65 65 65 64 64 63 62 61 56 47 40 38 39 41 41 42 44 46 51 58 58 54 54 54 53 56 58 61 65 68 70 73 74 75 77 79 81 83 85 86 88 89 91 92 94 95 97 99 100 102 103 105 106 107 108 108 108 108 107 104 102 98 94 90 87 84 81 77 74 73 72 71 70 69 67 65 63 60 57 54 51
60 59 60 63 64 64 64 64 63 62 61 61 59 48 38 37 39 41 44 45 45 46 45 47 56 61 57 55 53 52 57 61 63 66 69 72 75 77 78 80 82 84 86 88 90 91 92 94 95 96 97 99 100 102 104 106 107 108 109 109 110 110 109 108 106 104 101 97 92 88 84 81 77 74 73 71 70 69 68 67 65 63 60 57 54 52
58 58 59 62 63 63 63 62 60 60 59 57 50 39 35 39 41 42 46 48 48 49 48 46 53 62 61 56 55 56 59 64 66 68 71 74 77 79 81 83 85 88 90 92 93 94 96 97 97 98 99 101 102 104 105 107 108 109 110 111 111 111 111 110 107 105 103 99 94 89 85 81 78 74 73 71 69 68 68 67 65 63 61 57 54 51
55 56 58 60 62 62 62 61 59 57 54 48 41 36 39 42 43 43 45 48 49 51 52 49 51 60 63 59 59 61 63 66 69 72 73 75 79 82 83 85 88 90 93 95 96 97 98 99 100 101 102 103 104 105 106 107 108 110 111 112 113 113 113 112 110 108 105 101 95 90 85 81 78 75 73 71 70 68 67 66 65 63 61 58 54 51
54 55 55 57 60 62 60 59 57 52 44 40 38 39 42 44 45 45 45 47 49 51 53 50 48 55 63 62 62 64 66 69 73 75 77 78 81 84 85 87 89 92 94 96 98 99 100 101 102 103 104 105 106 106 107 109 110 111 113 114 115 115 114 113 112 109 106 102 96 91 86 82 79 76 74 72 70 68 67 65 64 63 61 58 54 51
54 54 54 54 56 59 60 59 51 41 37 38 40 41 43 45 47 47 46 48 49 51 55 52 46 51 61 63 64 67 69 72 76 79 81 82 84 86 88 89 91 93 95 97 99 100 102 103 104 105 106 107 108 109 110 111 112 113 115 116 117 116 116 115 113 111 107 103 97 91 86 82 79 77 74 72 70 68 67 65 63 62 61 58 54 52
53 54 54 51 51 53 55 51 41 35 37 40 42 42 43 45 48 49 50 51 52 53 56 55 48 50 60 64 66 69 72 74 77 81 85 87 88 89 90 91 93 95 97 98 100 102 103 104 106 107 109 110 111 112 113 114 115 115 116 118 118 117 117 115 113 111 108 103 97 91 86 82 80 78 75 72 70 68 66 65 63 62 60 58 54 51
52 54 54 52 52 49 43 36 33 36 40 42 43 43 44 46 49 52 53 55 55 54 56 58 52 50 59 66 68 71 74 76 78 81 85 88 90 92 93 94 96 97 99 101 102 103 105 106 108 110 111 112 114 115 115 116 117 117 118 119 119 118 117 115 113 111 107 103 97 91 86 83 81 79 76 72 70 68 66 64 63 61 60 57 54 51
49 51 53 53 52 45 35 31 34 38 41 42 43 43 44 48 51 54 56 57 59 57 56 59 58 55 60 66 69 72 75 77 80 83 86 89 90 92 93 95 98 100 102 104 105 107 108 109 110 112 113 115 116 116 117 118 118 119 120 120 120 119 118 115 113 110 106 102 97 91 86 83 81 79 76 73 70 68 66 64 62 61 59 57 54 51
46 49 51 49 44 38 34 36 39 40 42 44 44 44 46 50 52 55 58 59 60 59 56 58 63 64 65 68 71 75 77 79 81 84 87 90 92 93 95 97 100 102 104 106 107 109 110 111 112 113 114 116 116 117 118 119 119 120 121 121 121 120 118 115 112 108 104 100 96 91 86 83 82 80 76 72 70 67 65 63 61 60 58 56 53 51
45 46 44 38 37 38 39 40 41 42 45 46 47 47 49 52 54 56 59 61 62 62 60 61 65 69 72 73 74 78 81 83 85 87 91 94 96 97 98 100 103 104 106 107 109 110 112 113 114 115 116 117 117 118 119 119 120 121 122 122 122 120 117 114 111 107 102 98 94 90 86 83 81 80 76 72 69 66 64 62 60 59 57 55 53 50
40 37 33 31 37 43 43 42 43 45 47 50 51 51 52 54 57 58 61 64 65 65 66 66 67 71 75 78 79 81 85 87 89 92 94 97 100 102 103 104 105 106 108 109 111 112 114 115 116 117 118 118 119 119 120 120 121 122 122 123 122 120 117 113 109 104 100 97 92 89 85 82 81 79 75 71 68 66 63 61 59 57 56 54 52 50
32 29 29 33 39 44 44 44 46 48 50 52 54 55 56 58 60 62 65 68 70 69 70 71 71 73 76 80 82 85 88 91 94 96 98 100 102 104 106 107 108 109 110 112 113 114 116 117 118 119 120 120 121 121 121 121 122 122 123 123 122 119 116 111 106 102 98 95 91 87 84 82 81 78 74 70 67 64 62 60 58 56 54 53 51 50
28 29 32 35 39 43 45 46 48 51 53 54 54 56 59 61 63 66 69 72 74 74 73 75 76 77 79 82 84 86 90 94 98 100 102 103 104 105 109 111 112 113 114 115 116 117 118 118 119 120 121 122 122 122 122 122 122 123 123 123 121 118 114 109 104 100 96 93 90 87 84 82 81 78 73 69 66 63 61 59 57 55 53 51 50 49
30 32 35 36 38 42 45 47 50 53 54 55 56 58 60 62 64 67 71 75 78 79 78 79 81 82 85 87 88 89 91 94 98 102 105 107 107 109 111 114 116 116 117 118 119 120 121 121 122 123 123 124 123 123 123 123 123 123 123 122 120 116 111 106 102 98 94 91 89 86 84 82 80 77 72 68 64 61 59 58 56 54 52 50 49 48
33 34 36 37 38 42 46 48 51 54 56 57 58 60 62 64 65 68 72 78 81 82 83 85 86 88 90 92 93 93 94 96 100 104 108 111 113 114 115 116 118 119 120 121 122 123 123 123 124 124 125 125 125 124 124 124 123 123 122 121 117 113 108 103 98 95 92 89 87 85 83 81 79 76 71 67 62 59 58 56 55 53 52 50 48 47
34 36 38 39 40 42 46 48 51 55 58 60 61 63 65 67 68 70 73 79 84 86 87 88 90 92 94 96 97 98 98 100 102 106 110 113 116 118 119 120 120 121 122 123 124 124 125 125 125 125 126 126 126 125 124 123 123 122 120 118 114 110 105 99 95 92 90 87 85 84 82 80 78 74 70 66 62 58 57 55 54 52 51 49 47 47
36 37 39 40 42 44 47 51 54 57 60 62 64 67 69 71 72 72 73 78 85 88 89 90 92 94 96 98 100 101 102 102 103 107 112 115 117 119 121 122 124 125 126 127 127 127 127 127 127 128 128 128 128 126 125 123 122 120 117 114 110 105 101 96 93 90 87 85 84 82 81 79 76 73 69 65 61 58 56 55 53 52 50 48 46 46
37 39 41 43 45 48 50 54 58 61 64 66 67 70 72 73 75 76 74 77 84 88 90 91 93 95 98 100 102 104 105 105 104 107 113 117 119 121 123 125 126 128 129 130 130 130 130 130 130 130 130 130 130 128 126 123 120 117 113 109 105 101 97 94 92 89 85 83 82 81 80 77 74 71 68 64 60 57 56 54 53 51 49 47 45 44
39 42 45 47 49 52 54 57 60 64 67 69 70 72 74 75 77 79 78 79 84 89 91 93 95 98 100 102 104 106 108 109 109 110 114 117 119 122 124 125 127 129 131 132 132 132 132 131 131 130 131 131 130 129 126 122 117 113 108 103 100 97 94 92 91 88 84 81 80 80 78 76 72 70 67 63 59 57 55 54 52 51 49 47 44 43
43 45 49 52 54 56 59 62 65 67 69 72 73 75 76 77 79 81 81 82 86 90 94 97 98 101 103 105 108 110 113 116 116 116 118 120 122 124 126 127 129 130 131 132 133 132 132 131 130 130 130 131 130 127 123 118 113 108 104 99 96 93 91 90 90 87 83 79 78 78 77 74 71 68 65 62 58 56 54 53 52 50 49 46 44 42
47 49 52 55 58 60 62 65 68 71 74 76 78 79 79 80 82 84 84 85 87 90 95 99 101 104 107 108 111 114 118 122 124 125 126 127 128 129 130 131 132 132 133 133 134 133 132 131 130 130 130 129 126 123 118 113 108 105 101 97 93 91 89 89 88 86 82 78 76 77 75 72 69 67 64 61 58 55 53 52 50 49 48 46 44 42
50 53 55 58 60 63 66 68 70 73 76 79 81 83 83 83 84 86 88 90 92 93 96 100 103 107 110 112 115 118 121 125 128 130 132 133 134 134 134 134 134 134 134 134 134 134 133 131 130 129 128 126 123 119 114 109 106 103 100 97 93 89 87 87 87 85 80 76 75 75 73 70 67 65 62 60 56 54 52 51 49 48 47 45 43 42
52 55 57 60 62 65 68 71 72 74 78 82 84 85 87 88 88 89 91 94 97 100 102 104 106 110 114 117 119 122 125 127 130 132 134 135 136 136 136 136 136 135 135 134 134 134 133 131 128 127 125 122 119 116 112 108 105 102 99 96 91 88 86 85 85 83 78 74 73 73 71 68 65 63 61 58 55 53 51 50 48 46 45 44 43 42
56 58 60 63 65 68 71 74 75 77 80 84 86 86 89 92 94 94 95 97 100 104 107 108 111 115 119 123 125 127 129 130 132 133 134 135 136 137 137 137 137 136 135 135 134 133 131 129 126 123 120 118 116 113 110 106 103 100 97 93 89 85 83 82 82 80 76 72 71 70 68 65 63 61 59 56 54 52 50 48 46 45 43 42 42 41
59 61 63 66 68 71 74 76 79 81 83 87 90 90 91 94 98 100 101 102 104 108 111 113 115 118 123 127 129 131 132 133 134 135 136 136 137 137 138 137 137 136 135 134 133 132 129 126 122 118 115 114 112 110 107 103 100 97 93 89 85 83 81 80 79 77 73 70 69 68 66 63 61 59 57 54 52 50 48 47 45 43 42 41 41 40
62 64 67 69 72 75 78 80 81 83 86 90 93 95 95 97 100 103 106 108 110 113 116 119 121 122 126 129 132 134 135 137 138 138 139 139 138 138 138 138 137 136 135 134 132 130 126 122 118 114 111 109 109 107 103 99 96 93 90 86 82 80 79 78 76 74 70 68 66 65 63 60 58 57 55 52 50 49 47 45 44 42 41 40 40 40
66 68 70 72 74 77 80 83 84 85 88 91 94 96 98 100 102 105 108 111 113 116 120 123 125 127 130 133 136 139 140 141 141 141 141 140 140 139 139 138 137 135 133 131 128 124 120 116 112 109 106 105 104 103 100 97 93 90 86 82 79 78 77 75 73 71 67 65 64 62 60 58 56 55 53 50 49 47 46 44 43 41 39 38 38 39
69 71 73 75 77 79 82 84 85 86 89 92 94 95 98 101 104 107 110 113 116 119 122 125 128 131 134 137 140 142 144 144 144 144 143 142 141 140 139 138 135 133 129 126 121 117 113 110 107 105 103 101 100 98 96 93 90 87 83 79 77 75 74 73 71 68 65 63 62 60 58 56 54 53 51 49 47 46 46 44 42 41 39 38 37 38
72 74 75 77 79 82 83 84 85 86 90 94 97 98 99 101 104 107 111 115 118 121 125 128 131 134 137 140 142 144 145 146 147 146 145 144 142 141 139 137 134 130 125 119 114 111 109 107 104 102 99 96 95 93 91 90 87 83 79 77 75 73 71 70 68 66 63 62 60 58 56 54 52 51 50 47 46 45 45 43 42 40 39 38 37 37
74 76 78 78 79 82 85 86 87 86 87 92 96 99 101 104 106 109 113 117 121 124 128 130 133 136 139 141 143 145 146 146 146 146 145 144 142 140 139 136 133 127 121 116 112 110 108 106 103 99 95 92 91 89 87 86 83 79 76 74 72 71 69 67 65 63 61 59 58 56 54 52 51 50 49 46 45 45 44 43 41 40 39 38 37 37
78 79 80 80 81 82 85 87 89 89 89 91 96 100 104 108 111 114 117 121 125 128 131 134 136 138 140 142 143 144 145 145 144 143 142 141 139 138 136 133 128 123 119 116 113 111 108 105 101 97 93 90 88 86 85 83 79 76 73 72 70 68 66 64 63 61 59 57 56 54 52 50 49 48 47 46 45 44 44 43 41 40 39 38 38 38
81 82 83 83 84 85 87 89 92 94 96 98 102 105 109 113 116 119 122 125 128 131 134 137 139 140 141 142 143 144 144 143 142 141 140 138 136 134 131 126 123 120 118 115 112 109 106 103 99 95 91 88 86 84 82 80 76 73 70 69 68 66 64 62 60 58 57 56 54 52 50 48 47 47 46 46 45 44 43 42 41 40 39 38 38 38
Wind_Direction
301 299 298 298 298 298 299 300 301 303 304 305 306 306 308 309 311 311 312 311 312 313 313 314 313 313 314 315 315 315 315 316 315 315 316 316 316 316 316 316 316 316 317 318 319 319 319 319 318 316 314 313 313 313 314 315 316 317 318 318 318 317 316 316 316 316 317 317 317 316 316 315 315 316 316 316 317 317 317 316 315 313 310 307 303 297
302 301 301 301 301 301 302 303 304 305 306 306 307 308 309 310 311 311 311 311 311 313 313 314 314 313 314 315 315 315 315 315 315 316 317 317 316 317 317 318 318 319 320 322 322 322 321 320 318 316 315 314 314 315 316 317 318 318 318 318 318 317 317 317 317 317 318 317 317 317 316 316 316 317 317 318 318 318 318 317 316 314 311 308 304 298
303 303 303 303 303 304 304 304 305 305 306 307 307 308 309 309 310 310 310 311 312 312 313 314 314 313 313 315 315 314 315 315 316 316 317 317 317 318 320 321 322 324 326 326 325 324 322 320 318 317 316 316 316 317 318 319 319 319 319 319 318 318 319 319 319 319 318 318 317 317 317 317 317 318 318 318 318 319 319 318 318 316 312 309 306 301
303 304 304 304 305 305 305 306 306 307 307 308 308 308 308 308 309 310 311 312 312 313 313 314 314 313 313 315 314 314 315 316 316 317 317 318 319 321 324 326 328 329 328 327 325 323 321 320 318 318 318 318 319 320 320 320 320 320 320 320 320 320 321 321 320 320 319 319 318 318 318 318 318 318 319 319 319 319 319 319 319 317 314 310 307 303
303 304 304 305 306 306 307 307 308 308 308 309 309 308 308 309 310 311 312 313 313 314 314 314 315 314 314 315 315 315 316 316 317 318 319 321 323 327 329 329 330 329 327 326 324 322 321 319 319 319 320 321 322 322 321 321 321 321 321 321 322 322 323 323 322 321 320 320 319 319 318 318 318 319 319 319 319 319 320 320 320 318 315 312 309 305
304 304 305 306 307 308 309 309 309 309 309 309 309 309 310 311 312 313 314 314 314 314 314 314 315 315 314 315 316 316 317 318 319 321 323 326 329 331 330 329 328 327 325 324 322 321 321 320 321 322 323 323 323 322 322 322 322 322 323 324 324 325 325 325 324 323 322 322 321 320 319 319 319 319 319 319 319 319 319 319 320 319 317 313 310 307
305 305 306 307 308 309 310 310 310 310 309 309 310 311 312 313 314 314 315 315 314 314 315 315 316 316 315 316 317 318 319 321 323 326 328 330 330 329 328 327 326 325 324 323 322 322 322 323 324 324 324 323 323 322 323 323 323 324 325 326 327 327 327 326 326 325 325 324 323 322 321 320 320 319 319 319 319 319 319 319 320 320 318 314 311 308
306 307 307 308 309 310 310 310 310 310 310 310 311 312 313 314 315 315 315 315 316 316 316 316 316 317 317 319 319 320 323 326 328 331 330 329 328 327 326 325 325 324 324 323 323 324 324 325 324 324 323 323 323 323 324 325 326 327 328 328 328 329 329 328 328 328 327 326 324 323 322 321 320 320 320 320 319 319 319 320 320 320 319 316 312 309
307 308 308 309 310 310 310 310 310 310 311 311 312 313 314 315 315 316 316 317 317 317 317 317 317 318 320 322 322 325 329 330 330 330 328 327 327 326 326 325 325 324 324 325 325 326 325 325 324 324 324 324 324 326 327 328 328 329 330 330 330 330 330 330 330 330 329 327 326 324 323 322 321 321 321 320 320 320 320 320 320 321 320 317 313 310
308 308 308 309 310 310 310 310 310 311 311 312 313 314 315 316 316 317 317 318 318 318 318 317 317 321 324 324 325 329 331 329 328 327 326 326 326 326 326 325 325 325 326 326 327 326 325 325 325 325 326 326 328 329 330 330 331 331 331 331 331 331 332 332 331 331 330 328 327 325 324 323 322 321 321 321 320 320 320 320 321 321 320 318 314 310
309 309 309 309 310 310 310 310 310 311 312 313 314 315 316 317 317 318 318 319 319 319 319 317 319 326 329 325 327 330 329 327 326 326 326 326 326 326 326 326 326 327 328 328 327 326 326 326 327 328 329 330 331 332 332 332 332 332 332 332 331 332 332 333 332 331 330 329 328 326 325 324 323 322 321 321 320 320 320 320 321 320 320 319 315 311
309 309 309 309 310 310 310 311 311 312 313 314 315 315 316 317 318 319 319 320 320 319 317 316 322 331 330 326 328 329 327 326 325 325 325 326 326 327 327 328 329 329 329 328 327 327 328 329 330 331 332 332 333 333 333 333 333 332 332 332 332 332 333 333 332 331 331 330 329 327 326 324 323 322 322 321 321 320 320 320 321 320 320 320 317 312
309 309 310 310 310 310 311 311 312 313 314 315 316 316 317 318 319 320 320 321 321 318 315 317 326 333 329 327 329 327 327 326 325 325 326 326 328 329 330 331 331 330 329 328 328 330 331 332 333 333 333 333 333 333 333 333 333 333 332 333 333 333 333 332 332 332 331 331 330 328 326 324 324 323 322 321 321 321 320 320 321 320 320 320 318 313
309 309 310 310 310 310 311 312 313 314 315 316 316 317 318 319 320 320 320 323 322 317 316 320 328 333 329 327 327 326 327 327 326 327 327 329 330 331 332 332 332 331 330 330 331 332 333 334 334 334 334 334 334 333 333 333 333 333 333 333 333 333 332 332 332 332 332 331 330 328 327 325 324 323 322 322 321 321 320 320 320 320 319 319 318 314
309 309 309 309 310 310 311 312 313 315 316 316 317 319 320 321 321 321 324 326 323 320 321 322 327 332 329 327 327 327 328 328 328 329 329 330 331 332 333 333 333 333 332 332 333 334 334 334 334 334 334 334 334 334 333 333 333 333 333 333 333 332 332 332 332 332 332 332 330 329 328 326 325 324 323 322 322 321 320 320 320 320 319 318 318 315
309 309 309 309 310 311 312 313 314 316 316 317 318 320 322 322 321 323 327 328 325 325 324 322 325 329 329 328 328 328 329 330 330 330 330 331 332 333 334 335 335 335 334 334 334 335 335 334 334 334 334 334 334 334 333 333 333 333 333 333 332 332 332 332 333 333 332 332 331 330 328 327 325 324 323 322 322 321 320 320 320 320 319 318 317 315
309 309 308 309 310 312 313 314 316 317 317 318 319 321 323 323 321 324 329 328 327 328 326 323 323 327 328 328 328 329 329 330 330 331 332 332 334 335 336 337 336 335 335 334 335 335 334 334 334 334 334 334 334 333 333 333 333 333 333 333 332 332 332 333 333 333 333 332 332 330 329 327 326 324 323 322 321 320 320 319 319 319 319 318 317 315
309 309 309 310 312 314 315 316 317 317 318 319 320 323 324 322 322 325 328 327 327 328 328 325 323 325 328 328 329 329 329 330 332 333 334 335 335 337 338 338 337 335 335 335 335 335 335 334 334 334 334 334 333 333 332 333 333 333 333 332 332 332 332 333 333 333 333 333 332 331 329 328 326 324 323 322 321 320 319 318 318 318 318 318 317 315
308 310 310 311 313 315 316 316 317 318 319 320 321 325 325 322 323 326 326 327 327 327 329 328 323 324 328 328 328 329 330 332 334 334 335 335 335 337 338 337 336 335 335 335 335 335 335 334 334 334 334 333 333 332 332 333 333 332 332 331 332 332 332 332 333 333 333 333 332 331 330 328 326 324 322 321 320 319 318 318 318 318 318 317 316 314
309 311 312 313 314 316 316 316 317 318 321 321 323 326 325 322 326 327 326 326 327 326 329 330 324 322 326 328 328 331 333 333 334 334 334 334 335 336 337 337 336 335 335 335 335 335 335 334 334 334 333 333 332 332 332 332 332 331 331 331 332 332 332 332 333 333 333 333 332 331 330 328 326 324 322 321 320 319 318 317 317 317 317 317 316 314
311 313 314 314 315 316 316 316 317 320 322 322 324 328 325 323 326 327 326 326 327 326 328 330 326 322 325 329 330 334 335 333 332 333 333 334 335 336 337 336 335 335 335 335 335 335 334 334 333 333 332 332 332 332 332 331 331 330 331 331 331 332 332 332 333 333 333 332 332 331 330 328 326 324 322 321 320 318 317 316 316 316 316 316 315 313
313 314 315 316 316 316 316 316 319 322 323 322 325 329 325 324 326 327 327 326 326 326 326 330 330 325 325 330 333 335 335 332 332 331 333 334 334 335 336 336 335 334 334 334 334 334 333 333 332 332 332 331 331 331 330 330 330 330 331 331 331 331 331 332 333 333 333 332 331 330 329 327 326 324 323 322 320 318 317 316 315 315 315 315 315 313
314 315 316 316 316 316 315 316 321 324 323 323 327 328 326 325 325 326 326 325 325 324 324 329 334 327 323 327 332 334 333 332 331 330 332 334 334 335 336 335 334 334 333 333 333 332 332 332 331 331 330 330 330 330 330 330 330 331 331 331 330 331 331 332 332 333 332 331 330 330 329 327 325 325 324 322 320 318 316 315 314 313 314 314 314 313
315 315 315 316 316 315 315 319 324 325 323 325 326 327 326 324 324 325 325 324 324 324 324 327 334 329 322 325 331 332 332 333 332 330 331 333 334 334 334 334 333 333 332 332 332 331 331 331 330 329 329 329 329 329 329 330 330 331 331 330 330 330 331 331 332 332 331 330 329 329 328 326 325 325 324 323 321 318 316 315 313 313 313 314 314 312
315 315 314 314 314 314 315 320 325 325 323 324 325 326 327 324 323 324 324 324 325 327 325 326 333 331 322 324 330 330 331 333 332 330 330 331 333 333 333 332 332 331 331 331 331 330 330 329 329 328 328 328 329 329 329 330 330 330 330 329 329 330 330 331 331 331 330 329 328 328 327 326 326 325 324 323 321 318 316 315 313 312 312 313 313 312
316 315 314 314 314 315 318 322 324 322 322 322 324 326 327 324 323 324 324 325 326 329 327 325 330 331 323 324 329 329 330 332 331 329 328 330 331 332 332 331 330 330 330 330 330 329 329 328 328 327 328 328 328 329 329 329 329 329 329 328 328 329 329 330 330 330 329 328 327 327 327 326 326 325 324 323 321 319 317 315 313 311 311 312 312 311
316 314 314 316 316 318 324 326 323 321 320 321 324 326 325 322 322 323 324 325 326 328 328 325 327 329 325 325 328 328 329 330 330 328 327 328 330 330 330 330 329 330 330 329 329 328 328 327 327 327 328 328 328 328 328 328 328 328 328 327 328 328 328 329 329 329 329 327 326 326 326 326 326 325 324 323 321 319 317 315 313 311 310 311 311 310
316 315 315 317 317 319 326 326 323 322 321 321 323 324 323 321 322 324 324 324 325 327 329 327 327 327 326 327 329 328 329 330 329 327 326 327 329 329 329 329 329 329 329 328 328 327 326 326 327 327 327 326 327 327 327 327 327 327 326 326 326 327 327 328 328 328 328 326 325 325 325 326 325 324 324 323 321 319 317 315 313 311 309 310 310 309
317 316 317 319 317 319 325 325 323 322 321 321 322 324 324 323 324 326 325 324 325 328 329 329 329 328 327 329 330 329 329 329 328 327 326 327 329 329 330 329 329 329 328 327 326 326 326 326 326 326 326 325 325 326 326 326 326 326 325 325 325 326 327 327 328 327 327 325 324 324 325 325 325 324 324 323 321 319 317 314 312 310 309 309 309 309
319 319 320 323 319 319 323 324 322 322 321 321 324 326 327 326 327 329 326 324 325 328 330 330 330 329 328 329 330 329 329 329 328 327 326 328 329 329 329 328 328 327 326 325 325 325 325 325 325 325 325 324 324 325 325 325 325 324 324 324 324 325 326 327 327 327 325 324 323 323 324 325 324 324 324 323 321 319 317 314 312 310 309 308 308 308
323 324 323 324 321 319 322 323 321 321 322 324 327 329 328 328 329 329 327 324 324 328 330 329 330 330 328 329 330 330 329 329 328 327 326 327 328 327 327 327 326 326 325 325 325 325 325 324 324 324 324 324 323 324 324 324 323 323 323 323 323 324 325 326 326 326 324 323 322 323 324 324 324 324 323 322 320 318 316 314 311 310 309 308 308 307
326 325 322 323 321 319 320 322 321 321 323 326 329 329 327 328 329 328 326 323 323 327 329 329 329 329 328 329 330 330 329 329 328 326 324 326 327 326 326 325 325 325 324 324 324 324 324 324 323 323 323 323 323 323 323 323 322 322 322 322 323 324 324 325 325 325 323 322 322 322 323 323 323 323 323 322 320 318 316 313 311 310 308 307 307 306
324 322 320 321 321 319 319 322 322 322 323 326 328 328 326 327 328 327 325 322 322 326 328 328 328 329 328 329 329 330 329 328 327 324 323 324 326 325 325 325 324 324 324 324 324 323 323 323 322 322 322 322 322 322 322 322 322 321 321 322 322 323 324 324 324 323 322 321 321 321 322 323 323 322 322 321 319 317 315 313 311 309 308 307 306 305
320 320 320 321 321 319 320 323 323 321 322 325 327 326 324 326 327 327 325 322 321 324 326 327 328 328 328 328 328 329 328 327 326 323 322 324 325 324 324 324 323 323 323 323 323 322 322 322 321 321 321 321 321 321 321 321 321 321 321 321 322 323 323 323 323 322 321 320 320 321 322 322 322 321 321 320 318 316 314 312 310 309 307 306 305 304
319 319 320 321 322 322 322 323 322 321 321 323 325 323 323 325 326 327 326 321 320 323 325 326 327 327 326 326 326 327 328 328 326 323 321 323 323 323 323 323 322 322 322 322 321 321 321 321 320 320 320 320 320 320 320 320 321 321 321 321 322 322 322 322 322 321 320 320 319 320 321 321 321 320 320 318 316 315 313 311 310 308 306 305 304 303
319 320 322 323 324 324 323 322 321 320 320 322 323 321 322 324 324 325 325 321 319 321 324 324 325 325 325 325 325 326 326 327 325 322 321 321 322 321 322 322 322 321 321 321 321 320 320 320 320 320 320 320 320 320 320 321 321 321 321 321 321 322 322 322 321 320 319 319 319 319 319 320 320 319 319 317 315 314 312 311 309 307 306 305 304 302
320 321 322 324 324 324 323 321 320 319 319 321 322 320 320 322 321 322 324 322 319 320 322 323 324 324 324 324 324 324 324 325 324 322 320 320 321 321 321 321 321 320 320 320 320 320 320 320 320 320 319 319 319 319 320 321 321 321 321 321 321 321 321 321 319 319 319 319 318 318 318 319 319 318 317 316 314 313 312 310 309 307 305 304 303 302
320 321 321 323 323 323 322 321 319 319 320 320 320 319 319 320 320 321 323 322 320 320 321 322 323 323 323 323 323 323 323 323 323 322 320 320 320 320 320 320 319 319 319 319 319 319 319 319 319 318 318 318 318 319 319 320 321 320 321 321 321 321 321 320 318 317 318 318 318 317 317 318 318 317 316 314 313 313 311 310 309 307 305 304 302 301
321 322 322 323 323 323 322 321 320 321 321 320 319 318 319 320 319 320 322 322 321 321 321 322 323 323 322 323 323 322 322 322 323 323 321 321 321 320 319 319 319 318 318 318 318 317 318 318 318 318 318 318 318 318 319 320 320 320 320 321 321 320 320 318 316 316 316 317 317 316 316 317 317 316 315 313 312 312 311 310 308 307 305 303 302 301
322 323 323 324 324 323 322 322 321 321 321 319 318 318 319 320 320 321 323 323 322 321 321 322 322 322 322 322 322 322 322 322 323 323 323 322 322 321 320 319 319 319 318 317 317 317 317 318 318 318 318 318 318 318 319 320 320 320 320 320 320 319 319 317 315 314 315 316 316 315 315 316 316 315 313 312 312 312 310 309 308 306 304 303 302 300
323 323 324 324 324 322 321 321 322 322 320 319 318 319 320 321 321 322 323 323 322 322 321 322 322 322 322 322 322 323 323 323 323 323 323 322 321 321 320 319 319 318 317 317 317 318 318 319 319 318 318 318 319 319 319 320 320 319 319 319 318 318 317 315 313 313 314 316 315 314 314 315 315 314 312 311 311 311 310 308 307 305 304 302 301 300
323 323 323 323 322 322 321 320 322 322 320 318 319 320 321 322 322 323 324 324 322 322 323 323 323 322 322 322 323 323 323 323 323 322 322 321 320 320 319 318 318 317 317 317 317 318 319 319 319 319 319 319 318 318 319 319 319 318 318 317 317 317 316 314 312 312 314 315 314 313 313 314 313 312 311 310 310 310 309 307 306 304 303 302 301 300
323 323 323 322 322 322 320 320 322 322 321 319 319 321 322 322 323 324 325 324 323 323 323 324 323 323 323 323 323 324 323 322 322 321 320 319 319 318 317 317 317 317 318 318 318 319 319 319 319 319 319 318 318 318 318 318 318 317 316 316 316 316 314 313 311 311 313 314 313 312 312 313 312 311 310 309 309 310 309 307 305 304 302 301 300 299
323 323 323 322 322 322 321 321 322 323 322 320 320 322 324 323 323 324 324 324 324 323 323 324 324 324 323 323 323 323 322 321 320 320 319 318 317 317 317 317 317 318 318 319 319 319 319 319 320 319 319 318 317 316 317 317 316 316 315 315 315 315 313 312 311 311 313 313 312 311 312 312 311 310 309 308 308 309 308 306 304 302 302 301 299 298
323 323 323 323 323 322 321 321 323 323 322 321 321 323 324 324 323 324 324 324 324 324 323 324 324 324 323 322 322 321 321 320 320 319 318 318 317 317 317 318 318 319 319 320 319 319 319 319 319 319 318 317 317 316 316 316 315 315 314 314 315 314 312 311 311 311 312 312 311 310 311 310 310 308 307 307 307 307 307 305 303 301 301 300 299 298
322 322 323 323 322 322 321 322 323 324 322 321 322 323 323 323 323 323 323 324 324 324 323 323 323 323 322 322 321 321 321 320 319 318 318 318 318 318 318 319 319 320 320 320 319 319 319 319 318 318 318 317 316 316 315 315 315 314 314 315 315 313 312 311 311 311 312 311 310 310 310 309 308 307 306 306 306 306 305 304 302 301 300 299 299 298
322 322 322 322 322 321 321 322 323 323 321 320 321 323 323 323 323 323 322 323 323 323 323 323 323 322 322 322 321 321 320 319 318 318 318 318 318 318 319 319 320 320 320 319 319 319 319 319 319 318 318 317 316 315 315 315 314 314 315 315 314 313 311 311 311 311 312 311 310 309 309 309 307 306 305 305 305 304 304 303 302 301 300 299 298 297
321 321 321 322 321 321 321 321 322 322 321 321 322 323 322 322 321 321 321 322 322 322 322 323 323 323 322 322 321 320 319 319 318 318 318 318 319 319 320 320 321 321 320 320 320 320 320 320 320 319 318 317 316 316 315 314 314 315 316 315 314 312 311 311 311 311 311 310 309 309 309 308 306 305 304 303 303 303 303 302 302 301 300 299 298 297
320 320 320 321 321 320 320 320 321 322 322 320 320 320 320 320 320 321 321 321 322 322 323 323 323 322 321 320 320 319 318 318 318 318 318 319 319 320 321 321 321 321 321 322 322 322 322 321 320 319 319 318 317 316 316 315 315 316 316 315 313 311 311 311 311 311 311 310 309 309 308 307 305 304 303 303 302 301 302 302 301 301 300 299 298 297
320 320 320 320 320 319 319 320 321 322 321 319 318 319 320 320 321 322 322 322 323 323 323 323 322 321 320 319 318 317 317 317 317 317 318 319 320 321 321 321 322 322 323 323 323 323 322 321 321 320 320 320 318 317 317 316 316 317 316 314 313 312 311 311 311 311 310 309 309 308 307 306 304 303 303 302 301 301 301 301 301 301 301 300 299 297
319 319 319 320 320 320 320 321 321 321 321 320 320 321 321 321 322 323 324 324 324 323 323 321 320 319 318 318 317 317 317 317 317 318 319 320 321 321 321 322 322 323 323 323 323 323 322 321 321 321 321 320 319 318 317 317 317 318 317 314 313 312 311 311 311 311 310 309 308 307 306 305 304 303 302 301 300 300 300 301 301 301 301 300 299 297
Height
10691 10689 10686 10684 10681 10678 10675 10672 10669 10666 10662 10659 10655 10651 10648 10644 10637 10632 10630 10625 10623 10619 10610 10604 10596 10587 10585 10581 10573 10569 10564 10558 10552 10546 10540 10533 10528 10523 10518 10512 10507 10502 10497 10493 10489 10484 10481 10478 10475 10471 10468 10464 10460 10455 10450 10445 10439 10432 10426 10419 10412 10405 10397 10389 10381 10373 10365 10356 10347 10338 10329 10321 10313 10306 10299 10292 10284 10277 10267 10258 10249 10242 10237 10233 10228 10224
10687 10685 10682 10679 10677 10674 10671 10667 10664 10661 10658 10654 10650 10646 10642 10639 10634 10626 10623 10619 10616 10614 10607 10601 10592 10579 10576 10575 10566 10560 10556 10550 10544 10539 10533 10527 10521 10516 10511 10505 10500 10495 10491 10487 10483 10479 10475 10473 10470 10466 10463 10458 10454 10449 10444 10438 10432 10425 10418 10411 10404 10397 10388 10380 10371 10363 10355 10347 10338 10330 10321 10312 10303 10295 10288 10281 10274 10267 10259 10250 10242 10234 10228 10224 10220 10216
10682 10680 10678 10675 10672 10669 10666 10663 10660 10657 10655 10651 10646 10642 10637 10634 10631 10624 10617 10611 10608 10608 10603 10598 10590 10575 10569 10568 10560 10553 10549 10543 10537 10532 10527 10521 10514 10509 10504 10499 10494 10489 10485 10482 10479 10475 10471 10468 10465 10461 10457 10452 10448 10442 10437 10431 10424 10417 10410 10402 10395 10387 10379 10370 10361 10353 10345 10337 10329 10321 10313 10303 10295 10286 10278 10271 10264 10257 10250 10242 10234 10226 10219 10215 10211 10208
10678 10676 10673 10671 10668 10665 10662 10659 10656 10652 10650 10647 10643 10638 10634 10629 10626 10621 10615 10607 10599 10598 10596 10594 10587 10572 10563 10562 10553 10546 10542 10536 10531 10525 10520 10514 10508 10503 10498 10493 10489 10485 10481 10478 10475 10472 10468 10464 10460 10456 10451 10446 10440 10435 10429 10422 10415 10408 10401 10394 10386 10378 10370 10361 10352 10343 10335 10328 10320 10312 10304 10295 10286 10278 10269 10261 10255 10248 10241 10234 10226 10218 10211 10205 10202 10198
10675 10672 10669 10667 10664 10661 10658 10654 10651 10647 10643 10641 10638 10633 10629 10624 10619 10615 10610 10604 10595 10588 10585 10585 10582 10568 10556 10554 10547 10539 10535 10530 10525 10519 10513 10508 10503 10498 10493 10489 10486 10482 10478 10475 10471 10468 10464 10460 10455 10450 10445 10439 10433 10427 10420 10413 10407 10399 10392 10385 10377 10369 10360 10352 10343 10334 10325 10318 10311 10302 10294 10286 10278 10270 10262 10253 10246 10239 10232 10225 10218 10210 10204 10197 10192 10189
10672 10669 10666 10663 10660 10657 10654 10650 10647 10644 10639 10635 10632 10627 10623 10618 10612 10607 10602 10597 10590 10583 10576 10574 10574 10565 10552 10547 10541 10533 10528 10523 10518 10513 10507 10503 10498 10494 10490 10486 10482 10479 10475 10471 10468 10464 10459 10455 10449 10444 10438 10432 10426 10419 10412 10405 10398 10391 10383 10376 10368 10360 10352 10343 10334 10324 10315 10307 10300 10292 10284 10276 10269 10261 10254 10247 10239 10233 10226 10218 10211 10203 10196 10190 10184 10179
10668 10665 10662 10659 10656 10653 10649 10646 10642 10639 10635 10631 10626 10622 10617 10612 10607 10601 10595 10589 10583 10577 10570 10563 10562 10558 10548 10541 10534 10526 10521 10516 10511 10507 10502 10498 10495 10491 10488 10483 10480 10476 10472 10467 10463 10459 10454 10449 10443 10437 10432 10426 10419 10412 10405 10398 10390 10382 10374 10366 10358 10351 10343 10334 10325 10315 10306 10297 10289 10281 10273 10266 10259 10252 10245 10238 10231 10225 10219 10212 10204 10197 10189 10182 10176 10171
10664 10661 10658 10655 10652 10649 10645 10642 10638 10635 10631 10626 10622 10617 10612 10607 10602 10596 10589 10583 10575 10568 10562 10555 10551 10548 10541 10536 10529 10521 10516 10511 10506 10503 10499 10495 10492 10489 10485 10481 10477 10473 10468 10463 10458 10453 10448 10442 10437 10431 10425 10419 10412 10406 10398 10390 10382 10374 10366 10357 10349 10341 10333 10324 10317 10307 10297 10288 10279 10271 10263 10256 10249 10242 10235 10228 10221 10215 10209 10203 10196 10189 10183 10175 10169 10163
10660 10657 10654 10651 10648 10644 10641 10637 10633 10630 10626 10621 10617 10613 10608 10603 10597 10591 10584 10577 10569 10561 10555 10548 10543 10540 10534 10529 10525 10519 10513 10508 10503 10500 10497 10494 10490 10487 10482 10478 10474 10469 10464 10459 10453 10447 10442 10436 10430 10424 10417 10411 10405 10398 10390 10382 10373 10365 10357 10348 10339 10332 10323 10314 10307 10299 10289 10280 10270 10262 10254 10246 10239 10233 10225 10218 10212 10205 10199 10194 10188 10182 10175 10169 10162 10156
10656 10653 10650 10646 10643 10640 10636 10633 10629 10625 10621 10616 10612 10608 10603 10598 10592 10585 10579 10572 10564 10556 10549 10541 10536 10536 10531 10524 10520 10517 10512 10507 10502 10499 10495 10491 10488 10484 10479 10474 10469 10465 10459 10454 10448 10442 10436 10429 10423 10417 10410 10403 10396 10389 10381 10373 10365 10356 10348 10339 10330 10322 10314 10304 10296 10289 10281 10272 10262 10254 10246 10237 10229 10223 10216 10209 10203 10196 10190 10185 10179 10173 10168 10162 10156 10150
10652 10648 10645 10642 10638 10635 10631 10628 10624 10620 10616 10612 10607 10603 10598 10593 10587 10581 10574 10567 10559 10551 10543 10535 10531 10532 10528 10521 10517 10515 10511 10507 10502 10497 10493 10488 10483 10479 10475 10469 10464 10459 10453 10448 10442 10436 10430 10423 10416 10410 10402 10394 10387 10379 10372 10365 10357 10348 10340 10331 10321 10313 10305 10295 10286 10279 10272 10264 10255 10245 10237 10229 10221 10214 10207 10200 10194 10187 10181 10176 10170 10165 10159 10154 10149 10143
10647 10643 10640 10637 10633 10630 10626 10622 10618 10614 10611 10606 10602 10598 10593 10588 10583 10576 10569 10562 10555 10547 10539 10532 10530 10529 10523 10518 10515 10512 10508 10504 10499 10495 10490 10485 10479 10473 10469 10463 10457 10452 10447 10441 10436 10430 10423 10416 10409 10401 10394 10386 10378 10371 10363 10356 10348 10340 10331 10323 10313 10304 10296 10287 10278 10270 10263 10255 10247 10237 10228 10221 10213 10205 10198 10191 10185 10178 10172 10167 10162 10156 10151 10146 10141 10136
10642 10638 10635 10632 10628 10624 10620 10616 10612 10608 10604 10600 10595 10591 10586 10582 10578 10572 10566 10559 10551 10543 10535 10531 10530 10526 10519 10515 10512 10507 10503 10499 10494 10490 10486 10481 10475 10469 10463 10458 10452 10446 10441 10435 10429 10423 10416 10409 10401 10394 10386 10378 10370 10362 10354 10347 10339 10331 10322 10314 10304 10295 10287 10280 10271 10262 10254 10246 10238 10230 10220 10212 10204 10196 10189 10182 10176 10169 10163 10158 10153 10148 10142 10138 10133 10128
10637 10633 10630 10626 10623 10619 10615 10611 10607 10603 10599 10594 10589 10584 10579 10574 10571 10567 10562 10556 10548 10539 10532 10528 10528 10525 10516 10511 10507 10502 10498 10493 10488 10483 10479 10476 10471 10466 10460 10454 10448 10441 10434 10428 10422 10415 10409 10401 10394 10387 10379 10371 10363 10354 10346 10338 10331 10322 10313 10305 10296 10287 10279 10272 10263 10254 10245 10237 10229 10221 10212 10203 10195 10188 10180 10173 10167 10160 10154 10149 10145 10140 10134 10130 10126 10121
10633 10629 10624 10621 10618 10614 10609 10605 10602 10598 10593 10588 10583 10579 10573 10567 10562 10558 10554 10550 10545 10537 10528 10523 10523 10521 10514 10506 10502 10497 10492 10487 10483 10477 10473 10469 10466 10461 10456 10450 10444 10437 10429 10422 10415 10408 10401 10394 10387 10379 10371 10363 10355 10347 10339 10330 10322 10314 10305 10296 10287 10279 10271 10263 10254 10245 10237 10228 10219 10211 10204 10195 10186 10179 10172 10164 10158 10151 10145 10140 10136 10131 10126 10121 10117 10114
10629 10624 10619 10616 10612 10609 10604 10600 10595 10592 10588 10583 10579 10574 10569 10562 10556 10552 10549 10544 10540 10535 10525 10518 10517 10516 10511 10503 10497 10492 10487 10482 10478 10473 10468 10464 10460 10456 10451 10445 10438 10431 10423 10416 10409 10402 10394 10387 10379 10372 10363 10355 10347 10339 10331 10322 10314 10305 10296 10287 10278 10270 10262 10254 10245 10236 10228 10219 10210 10201 10194 10187 10178 10170 10163 10156 10149 10143 10137 10131 10127 10122 10118 10113 10109 10105
10625 10620 10614 10610 10607 10603 10599 10595 10589 10585 10581 10577 10573 10569 10565 10558 10551 10548 10545 10541 10537 10532 10523 10513 10511 10512 10508 10500 10494 10489 10484 10479 10473 10468 10462 10457 10453 10448 10443 10437 10430 10423 10416 10409 10403 10396 10388 10380 10372 10364 10356 10347 10339 10331 10322 10314 10305 10296 10287 10278 10270 10261 10252 10244 10235 10227 10218 10209 10201 10192 10184 10177 10170 10162 10154 10148 10141 10135 10129 10123 10119 10114 10109 10105 10100 10096
10621 10617 10609 10604 10602 10598 10593 10589 10584 10579 10575 10571 10567 10564 10559 10554 10548 10544 10542 10538 10534 10531 10522 10509 10502 10506 10506 10498 10492 10486 10480 10475 10469 10462 10456 10450 10446 10442 10436 10429 10422 10415 10408 10401 10395 10388 10380 10372 10364 10356 10347 10338 10330 10322 10314 10305 10296 10287 10278 10270 10261 10252 10242 10234 10225 10216 10208 10199 10191 10183 10175 10168 10161 10154 10146 10140 10133 10127 10121 10116 10111 10106 10101 10097 10092 10087
10615 10613 10606 10598 10595 10592 10586 10583 10578 10574 10570 10565 10561 10558 10553 10549 10546 10542 10538 10535 10531 10528 10524 10510 10495 10496 10501 10495 10489 10485 10477 10472 10466 10458 10452 10445 10439 10435 10430 10423 10416 10408 10401 10394 10387 10379 10371 10363 10355 10346 10338 10330 10321 10313 10305 10296 10287 10279 10270 10261 10252 10243 10234 10225 10216 10206 10197 10190 10182 10174 10166 10159 10152 10145 10138 10132 10125 10119 10113 10107 10103 10098 10093 10089 10084 10079
10609 10607 10603 10595 10590 10586 10581 10577 10573 10569 10565 10560 10556 10553 10549 10544 10542 10538 10533 10530 10527 10523 10522 10515 10495 10486 10492 10491 10485 10481 10474 10466 10462 10455 10448 10442 10434 10428 10422 10416 10409 10400 10393 10386 10378 10371 10363 10354 10346 10337 10330 10322 10314 10305 10296 10287 10279 10271 10262 10252 10242 10234 10224 10216 10207 10197 10188 10180 10172 10164 10157 10149 10143 10136 10130 10124 10117 10111 10104 10099 10094 10090 10086 10081 10077 10072
10605 10601 10597 10591 10585 10581 10576 10571 10568 10565 10560 10555 10551 10549 10545 10541 10539 10535 10529 10524 10521 10517 10515 10515 10498 10480 10481 10484 10478 10474 10469 10460 10454 10450 10444 10437 10429 10422 10415 10407 10399 10391 10383 10376 10368 10361 10354 10346 10338 10330 10322 10314 10306 10297 10289 10281 10273 10263 10253 10243 10233 10224 10215 10206 10197 10188 10179 10170 10163 10155 10148 10140 10133 10127 10121 10115 10109 10103 10096 10091 10086 10082 10078 10074 10069 10065
10601 10597 10592 10586 10580 10575 10570 10566 10563 10560 10555 10550 10547 10545 10541 10537 10534 10532 10528 10521 10517 10512 10508 10510 10500 10479 10472 10475 10471 10466 10462 10455 10447 10441 10437 10432 10423 10416 10409 10400 10390 10382 10374 10367 10360 10352 10345 10337 10329 10321 10314 10306 10298 10291 10283 10274 10266 10256 10244 10234 10224 10215 10205 10196 10187 10178 10170 10161 10153 10146 10139 10131 10125 10118 10112 10106 10100 10094 10088 10083 10078 10074 10070 10066 10062 10057
10595 10592 10588 10582 10575 10569 10564 10561 10559 10555 10550 10546 10544 10542 10537 10533 10529 10527 10525 10520 10515 10509 10503 10504 10501 10482 10468 10467 10466 10461 10455 10449 10440 10432 10428 10425 10417 10409 10402 10394 10385 10376 10367 10360 10352 10344 10336 10327 10319 10312 10305 10298 10291 10283 10275 10266 10257 10246 10235 10224 10215 10206 10196 10186 10178 10169 10160 10152 10144 10137 10130 10122 10116 10110 10104 10097 10091 10085 10079 10075 10070 10066 10062 10058 10054 10050
10590 10586 10583 10580 10573 10564 10558 10556 10555 10551 10547 10543 10541 10538 10534 10529 10525 10522 10519 10516 10511 10505 10498 10497 10498 10486 10469 10462 10461 10456 10450 10443 10433 10423 10417 10415 10410 10403 10395 10386 10378 10370 10362 10354 10345 10337 10328 10320 10311 10304 10297 10290 10282 10273 10264 10255 10246 10236 10226 10215 10205 10197 10187 10178 10169 10160 10151 10143 10135 10128 10121 10114 10107 10101 10095 10089 10083 10076 10071 10066 10062 10057 10054 10050 10046 10042
10585 10579 10576 10575 10572 10565 10558 10553 10550 10547 10544 10541 10537 10534 10531 10525 10521 10517 10513 10510 10507 10502 10493 10488 10491 10485 10469 10460 10457 10450 10444 10438 10428 10416 10407 10402 10398 10393 10387 10379 10370 10363 10355 10347 10339 10330 10322 10313 10305 10296 10288 10279 10270 10262 10253 10244 10234 10226 10216 10206 10196 10187 10178 10169 10160 10151 10142 10134 10126 10119 10112 10105 10098 10092 10086 10080 10074 10068 10063 10058 10053 10049 10045 10042 10039 10034
10580 10573 10569 10566 10564 10562 10559 10554 10550 10546 10541 10538 10534 10530 10526 10521 10516 10511 10507 10503 10500 10498 10490 10481 10483 10483 10469 10457 10453 10445 10437 10432 10425 10415 10404 10396 10390 10383 10377 10370 10362 10355 10347 10339 10331 10323 10314 10306 10296 10286 10277 10267 10258 10250 10242 10233 10224 10215 10206 10196 10187 10178 10169 10161 10152 10143 10134 10125 10117 10110 10103 10096 10089 10083 10077 10071 10065 10059 10054 10049 10045 10041 10037 10034 10031 10027
10576 10569 10563 10560 10556 10554 10554 10552 10548 10545 10540 10535 10532 10528 10523 10517 10512 10506 10502 10498 10494 10493 10489 10478 10473 10475 10468 10456 10450 10442 10434 10427 10419 10410 10402 10395 10389 10381 10373 10365 10356 10346 10337 10328 10319 10312 10305 10297 10287 10277 10267 10257 10249 10240 10232 10224 10215 10205 10196 10186 10177 10168 10159 10151 10143 10134 10125 10116 10107 10100 10094 10087 10080 10073 10068 10063 10057 10051 10046 10041 10037 10033 10029 10026 10023 10019
10572 10566 10560 10556 10551 10549 10549 10547 10543 10541 10536 10532 10529 10526 10521 10514 10509 10503 10497 10493 10488 10485 10484 10477 10466 10462 10458 10451 10443 10434 10427 10422 10414 10405 10396 10388 10383 10378 10369 10359 10348 10338 10329 10319 10311 10302 10295 10287 10278 10269 10259 10249 10241 10233 10224 10214 10206 10196 10186 10176 10167 10159 10150 10142 10133 10124 10116 10107 10099 10091 10085 10079 10071 10065 10060 10055 10049 10043 10038 10034 10029 10025 10021 10018 10015 10012
10568 10563 10557 10553 10547 10545 10545 10542 10538 10535 10531 10527 10524 10522 10517 10510 10505 10500 10491 10486 10482 10478 10475 10471 10462 10452 10444 10440 10435 10425 10416 10411 10404 10395 10386 10378 10371 10365 10358 10349 10339 10330 10322 10313 10305 10295 10286 10276 10267 10259 10250 10241 10232 10224 10215 10206 10196 10187 10177 10166 10157 10149 10141 10132 10123 10115 10106 10098 10090 10083 10076 10070 10063 10057 10052 10046 10040 10035 10031 10026 10022 10018 10014 10011 10008 10005
10564 10559 10555 10552 10545 10540 10540 10538 10534 10530 10525 10521 10517 10514 10511 10504 10498 10493 10485 10478 10474 10471 10466 10461 10457 10448 10436 10429 10425 10417 10407 10400 10393 10384 10375 10367 10357 10349 10344 10338 10330 10322 10314 10304 10295 10286 10275 10266 10256 10247 10238 10230 10221 10212 10204 10196 10186 10176 10166 10156 10146 10138 10131 10123 10114 10106 10097 10088 10081 10074 10067 10061 10055 10049 10044 10038 10032 10027 10022 10018 10014 10010 10006 10003 10000 9997
10560 10557 10553 10550 10544 10537 10535 10533 10528 10525 10521 10516 10512 10507 10502 10497 10491 10485 10478 10469 10464 10463 10458 10452 10448 10444 10434 10424 10418 10409 10398 10389 10381 10371 10363 10358 10350 10339 10331 10326 10320 10312 10304 10294 10284 10275 10266 10257 10247 10237 10227 10218 10210 10201 10192 10185 10176 10166 10156 10145 10136 10128 10120 10112 10104 10096 10087 10079 10072 10065 10058 10052 10046 10040 10035 10030 10024 10018 10013 10009 10005 10002 9999 9995 9992 9989
10557 10554 10551 10548 10543 10536 10532 10529 10524 10519 10516 10512 10508 10503 10496 10491 10485 10478 10470 10461 10454 10453 10451 10445 10439 10435 10428 10421 10414 10405 10392 10378 10368 10357 10348 10346 10344 10334 10322 10314 10307 10300 10291 10283 10273 10264 10256 10247 10237 10227 10217 10208 10199 10190 10181 10173 10165 10156 10145 10135 10126 10118 10110 10102 10094 10086 10077 10069 10062 10056 10049 10042 10036 10031 10027 10021 10015 10010 10004 10000 9997 9994 9991 9988 9985 9981
10554 10552 10548 10545 10541 10534 10529 10526 10521 10515 10511 10507 10503 10498 10492 10486 10481 10474 10465 10454 10445 10443 10441 10436 10430 10424 10417 10410 10404 10399 10390 10377 10364 10351 10338 10333 10332 10327 10317 10305 10295 10287 10278 10269 10260 10250 10242 10234 10224 10214 10203 10194 10186 10178 10169 10160 10152 10144 10134 10124 10116 10108 10100 10092 10084 10076 10067 10059 10053 10046 10039 10033 10027 10022 10018 10013 10007 10002 9997 9992 9988 9986 9983 9980 9977 9974
10551 10548 10545 10542 10539 10533 10527 10523 10518 10511 10506 10503 10499 10493 10488 10483 10478 10472 10462 10447 10438 10434 10429 10423 10417 10410 10402 10395 10389 10386 10382 10372 10359 10344 10329 10320 10314 10309 10304 10295 10284 10275 10265 10256 10247 10238 10228 10220 10211 10201 10191 10180 10172 10164 10157 10149 10140 10132 10123 10113 10105 10097 10089 10082 10074 10066 10057 10050 10043 10037 10030 10024 10019 10014 10009 10005 10000 9994 9989 9985 9981 9978 9975 9972 9970 9967
10548 10545 10542 10539 10536 10532 10526 10520 10515 10508 10501 10498 10494 10488 10483 10478 10473 10468 10460 10442 10429 10425 10421 10413 10406 10398 10391 10385 10378 10373 10370 10364 10352 10334 10319 10312 10303 10292 10285 10279 10271 10262 10253 10244 10236 10227 10217 10208 10199 10189 10179 10169 10160 10153 10146 10138 10129 10121 10112 10102 10094 10086 10078 10071 10064 10056 10048 10041 10034 10028 10022 10016 10010 10005 10001 9996 9991 9987 9982 9977 9974 9970 9967 9965 9962 9959
10545 10542 10539 10535 10532 10528 10523 10516 10510 10504 10498 10493 10489 10482 10475 10471 10465 10462 10459 10443 10425 10418 10414 10407 10401 10393 10385 10378 10370 10364 10360 10357 10349 10330 10311 10303 10297 10285 10273 10264 10255 10247 10239 10229 10221 10211 10201 10192 10182 10172 10162 10154 10145 10137 10132 10125 10117 10110 10101 10091 10083 10075 10067 10060 10053 10046 10039 10032 10025 10018 10013 10007 10002 9996 9992 9988 9983 9979 9975 9970 9966 9963 9960 9958 9955 9952
10541 10538 10534 10531 10527 10523 10519 10513 10506 10499 10492 10487 10484 10476 10469 10465 10459 10454 10455 10445 10427 10415 10409 10402 10397 10389 10380 10372 10364 10356 10350 10349 10348 10333 10310 10296 10286 10274 10263 10251 10238 10228 10220 10211 10202 10193 10183 10174 10164 10154 10144 10136 10128 10121 10115 10110 10104 10096 10088 10079 10070 10062 10055 10048 10041 10035 10029 10023 10016 10009 10003 9998 9993 9988 9983 9979 9975 9971 9967 9963 9959 9956 9953 9950 9948 9945
10538 10534 10530 10526 10522 10518 10513 10508 10501 10495 10488 10482 10478 10472 10464 10459 10452 10445 10443 10437 10423 10411 10402 10395 10389 10381 10372 10364 10356 10349 10341 10338 10339 10331 10311 10295 10282 10266 10254 10244 10231 10218 10206 10195 10186 10179 10170 10162 10154 10145 10134 10124 10115 10107 10101 10096 10090 10082 10074 10066 10058 10050 10044 10037 10030 10024 10019 10013 10007 10000 9994 9989 9984 9979 9974 9971 9967 9963 9959 9955 9952 9948 9945 9943 9941 9939
10534 10530 10525 10520 10516 10511 10506 10500 10493 10487 10481 10474 10469 10463 10457 10451 10444 10437 10434 10429 10417 10404 10393 10385 10379 10371 10362 10355 10346 10337 10326 10318 10317 10315 10301 10287 10276 10261 10246 10235 10224 10212 10199 10186 10176 10167 10160 10152 10143 10134 10124 10113 10103 10095 10088 10082 10076 10067 10060 10053 10046 10039 10033 10026 10019 10013 10008 10004 9998 9991 9985 9980 9975 9970 9966 9962 9958 9955 9951 9947 9944 9941 9937 9935 9933 9931
10530 10525 10520 10515 10510 10504 10499 10493 10485 10477 10471 10464 10457 10452 10447 10442 10434 10426 10423 10419 10411 10401 10388 10377 10369 10360 10351 10344 10335 10324 10311 10296 10288 10285 10276 10264 10255 10245 10231 10217 10206 10196 10184 10173 10163 10154 10148 10141 10131 10121 10111 10101 10092 10083 10076 10069 10062 10053 10045 10039 10033 10028 10022 10015 10008 10002 9998 9994 9988 9981 9975 9971 9966 9961 9957 9953 9950 9946 9943 9939 9937 9933 9930 9927 9925 9924
10526 10521 10516 10510 10505 10498 10492 10486 10481 10473 10463 10455 10448 10441 10436 10433 10427 10418 10411 10404 10397 10393 10385 10374 10362 10350 10339 10331 10321 10311 10300 10284 10269 10259 10251 10240 10230 10222 10212 10200 10190 10180 10170 10159 10148 10137 10130 10125 10117 10106 10096 10086 10076 10067 10060 10054 10048 10040 10032 10026 10020 10017 10011 10004 9996 9991 9987 9983 9978 9971 9966 9961 9957 9952 9948 9945 9941 9938 9935 9932 9929 9926 9923 9920 9917 9916
10523 10517 10512 10506 10500 10494 10486 10480 10475 10469 10458 10447 10440 10433 10424 10418 10415 10410 10404 10394 10382 10374 10369 10362 10351 10337 10324 10315 10307 10296 10285 10273 10260 10248 10237 10226 10214 10204 10195 10186 10176 10167 10157 10147 10136 10125 10116 10110 10103 10094 10083 10072 10061 10052 10045 10039 10033 10026 10019 10013 10008 10005 9999 9992 9985 9979 9976 9973 9967 9961 9956 9952 9948 9943 9940 9936 9933 9930 9927 9924 9921 9919 9916 9912 9910 9907
10518 10512 10507 10501 10495 10489 10481 10473 10468 10462 10452 10439 10433 10429 10419 10407 10400 10397 10393 10386 10373 10360 10352 10346 10337 10323 10307 10296 10289 10280 10270 10259 10250 10239 10229 10218 10206 10194 10184 10173 10162 10151 10142 10132 10123 10113 10103 10095 10088 10080 10070 10058 10047 10038 10031 10025 10020 10013 10006 10000 9997 9992 9987 9980 9973 9968 9965 9962 9957 9951 9947 9943 9939 9935 9931 9928 9925 9922 9919 9916 9914 9911 9908 9905 9902 9900
10512 10507 10501 10495 10489 10482 10474 10467 10459 10452 10442 10429 10419 10417 10412 10399 10386 10378 10374 10369 10361 10348 10337 10330 10324 10313 10297 10282 10272 10266 10258 10247 10236 10226 10216 10205 10194 10182 10170 10159 10148 10138 10127 10117 10107 10097 10088 10079 10072 10065 10057 10046 10034 10024 10018 10012 10006 10001 9995 9989 9985 9980 9974 9968 9962 9957 9955 9952 9947 9942 9938 9934 9930 9926 9923 9919 9916 9914 9911 9909 9906 9904 9901 9898 9895 9893
10506 10501 10495 10488 10481 10473 10464 10458 10452 10444 10433 10419 10407 10400 10397 10389 10377 10367 10358 10349 10341 10332 10321 10312 10306 10299 10288 10274 10262 10253 10245 10233 10221 10211 10200 10189 10178 10167 10154 10143 10133 10123 10112 10102 10091 10081 10072 10064 10056 10049 10042 10033 10020 10010 10004 9999 9992 9987 9982 9978 9973 9967 9961 9956 9951 9947 9945 9942 9937 9932 9929 9925 9922 9918 9914 9911 9908 9906 9904 9901 9899 9897 9894 9892 9889 9886
10499 10494 10488 10481 10475 10467 10456 10448 10442 10435 10424 10412 10401 10391 10383 10376 10367 10357 10347 10339 10330 10320 10309 10299 10290 10283 10273 10260 10245 10233 10224 10213 10201 10191 10182 10171 10160 10150 10138 10126 10117 10108 10099 10089 10079 10069 10060 10052 10044 10036 10028 10020 10008 9997 9990 9984 9978 9973 9969 9965 9961 9955 9948 9943 9940 9937 9934 9931 9927 9923 9919 9916 9913 9909 9906 9903 9900 9898 9896 9894 9891 9889 9887 9885 9882 9879
10493 10487 10482 10474 10467 10460 10452 10443 10436 10428 10416 10405 10399 10392 10380 10369 10358 10347 10337 10331 10323 10314 10304 10292 10281 10270 10259 10245 10229 10214 10203 10193 10181 10170 10162 10153 10143 10132 10121 10111 10102 10094 10085 10075 10066 10056 10047 10038 10029 10021 10014 10006 9997 9987 9978 9971 9965 9961 9957 9953 9948 9942 9936 9932 9929 9926 9923 9921 9917 9913 9910 9907 9904 9901 9898 9895 9893 9890 9888 9886 9884 9881 9879 9878 9875 9872
10486 10480 10475 10469 10460 10451 10444 10438 10432 10423 10408 10392 10384 10381 10375 10367 10360 10350 10337 10326 10317 10307 10296 10284 10269 10254 10242 10230 10217 10201 10187 10175 10162 10149 10139 10131 10122 10112 10103 10093 10083 10075 10067 10060 10052 10043 10033 10024 10015 10007 10000 9993 9985 9976 9967 9959 9953 9949 9945 9940 9935 9930 9925 9922 9918 9915 9913 9910 9906 9903 9901 9898 9895 9892 9889 9887 9885 9883 9881 9879 9877 9874 9872 9870 9868 9866
10479 10472 10467 10463 10455 10444 10434 10428 10423 10420 10411 10394 10380 10374 10369 10361 10355 10347 10335 10322 10310 10297 10285 10273 10260 10244 10229 10216 10203 10189 10176 10163 10149 10135 10123 10113 10104 10093 10083 10072 10063 10055 10047 10040 10034 10026 10017 10008 9999 9991 9985 9978 9970 9963 9955 9947 9941 9937 9934 9928 9923 9919 9915 9912 9909 9906 9903 9900 9897 9894 9892 9890 9887 9883 9880 9878 9877 9875 9873 9872 9869 9867 9864 9862 9861 9859
10471 10464 10458 10453 10447 10439 10429 10421 10413 10410 10408 10398 10385 10373 10363 10352 10343 10335 10323 10310 10297 10283 10269 10257 10247 10235 10222 10207 10192 10178 10165 10154 10141 10128 10116 10106 10095 10082 10070 10059 10049 10040 10032 10024 10018 10011 10002 9993 9983 9976 9970 9963 9956 9949 9942 9936 9931 9927 9923 9917 9912 9908 9905 9902 9899 9897 9894 9891 9888 9886 9884 9881 9878 9875 9872 9870 9869 9867 9866 9864 9862 9859 9857 9855 9853 9852
10461 10455 10449 10443 10437 10429 10421 10413 10403 10394 10388 10381 10371 10361 10351 10340 10330 10320 10308 10294 10282 10270 10256 10243 10232 10221 10210 10198 10183 10166 10150 10138 10127 10116 10105 10097 10086 10074 10062 10051 10039 10029 10020 10013 10004 9996 9987 9979 9970 9963 9957 9950 9942 9936 9930 9924 9920 9917 9912 9906 9901 9898 9895 9892 9890 9887 9884 9881 9879 9877 9875 9872 9869 9866 9864 9862 9860 9859 9858 9856 9854 9852 9850 9848 9846 9845